FW0827 Weather Reports


Display with metric or nautical units.
time (UTC)temp
F
wind
direction
speed
MPH
gust
MPH
rain 1hr
in
rain 24hr
in
rain mn
in
humidity
%
barometer
mb
20260508135539 57 284 0.0 0.0 0.00 0.00 0.00 56 1030.9
20260508135204 58 266 0.0 3.0 0.00 0.23 0.00 59 1014.2
20260508135036 58 263 0.0 2.0 0.00 0.00 0.00 59 1030.9
20260508134703 58 239 0.0 3.0 0.00 0.23 0.00 58 1014.1
20260508134532 59 235 0.0 3.0 0.00 0.00 0.00 58 1031.0
20260508134204 58 284 0.0 0.0 0.00 0.23 0.00 54 1014.3
20260508134030 59 278 0.0 0.0 0.00 0.00 0.00 53 1030.8
20260508133526 60 249 0.0 0.0 0.00 0.00 0.00 57 1030.8
20260508133204 58 308 0.0 1.0 0.00 0.23 0.00 60 1014.3
20260508133023 58 317 0.0 0.0 0.00 0.00 0.00 61 1030.9
20260508132704 58 320 0.0 1.0 0.00 0.23 0.00 59 1014.2
20260508132516 57 291 0.0 0.0 0.00 0.00 0.00 57 1030.8
20260508132204 57 262 0.0 1.0 0.00 0.23 0.00 61 1014.3
20260508132012 57 262 0.0 0.0 0.00 0.00 0.00 62 1031.0
20260508131507 55 292 0.0 0.0 0.00 0.00 0.00 60 1031.0
20260508131004 55 131 0.0 3.0 0.00 0.00 0.00 57 1031.1
20260508130704 56 263 0.0 3.0 0.00 0.23 0.00 60 1014.3
20260508130502 56 262 0.0 3.0 0.00 0.00 0.00 59 1031.1
20260508125957 56 278 0.0 0.0 0.00 0.00 0.00 61 1030.9
20260508125453 57 338 4.0 7.0 0.00 0.00 0.00 56 1030.9
20260508125204 56 298 0.0 1.0 0.00 0.23 0.00 61 1014.2
20260508124951 56 311 0.0 0.0 0.00 0.00 0.00 57 1030.9
20260508124704 56 309 0.0 1.0 0.00 0.23 0.00 59 1014.2
20260508124449 56 300 0.0 2.0 0.00 0.00 0.00 60 1030.8
20260508124204 56 298 0.0 1.0 0.00 0.23 0.00 62 1014.2
20260508123946 56 256 0.0 0.0 0.00 0.00 0.00 61 1031.0
20260508123704 56 245 0.0 1.0 0.00 0.23 0.00 58 1014.3
20260508123445 57 242 0.0 0.0 0.00 0.00 0.00 59 1030.9
20260508123205 57 250 0.0 0.0 0.00 0.23 0.00 63 1014.4
20260508122940 56 249 0.0 0.0 0.00 0.00 0.00 63 1030.9
20260508122704 55 316 0.0 0.0 0.00 0.23 0.00 65 1014.5
20260508122438 55 328 0.0 0.0 0.00 0.00 0.00 66 1031.1
20260508122205 55 315 0.0 1.0 0.00 0.23 0.00 68 1014.1
20260508121935 54 319 0.0 0.0 0.00 0.00 0.00 69 1030.9
20260508121704 54 319 0.0 1.0 0.00 0.23 0.00 70 1014.1
20260508121433 54 270 0.0 0.0 0.00 0.00 0.00 71 1030.8
20260508120930 53 269 0.0 0.0 0.00 0.00 0.00 72 1030.8
20260508120703 53 296 0.0 0.0 0.00 0.23 0.00 75 1013.9
20260508120428 51 266 0.0 0.0 0.00 0.00 0.00 76 1030.9
20260508120204 50 266 0.0 0.0 0.00 0.23 0.00 80 1014.2
20260508115925 50 264 0.0 0.0 0.00 0.00 0.00 79 1031.1
20260508115704 49 262 0.0 0.0 0.00 0.23 0.00 80 1014.3
20260508115424 49 237 0.0 0.0 0.00 0.00 0.00 80 1030.9
20260508115205 49 256 0.0 0.0 0.00 0.23 0.00 83 1014.2
20260508114919 48 270 0.0 0.0 0.00 0.00 0.00 83 1030.7
20260508114704 48 274 0.0 0.0 0.00 0.23 0.00 82 1014.2
20260508114417 48 262 0.0 0.0 0.00 0.00 0.00 82 1030.8
20260508113913 48 277 0.0 0.0 0.00 0.00 0.00 82 1030.7
20260508113704 48 300 0.0 0.0 0.00 0.23 0.00 83 1014.0
20260508113411 48 307 0.0 0.0 0.00 0.00 0.00 84 1030.5
20260508113205 48 315 0.0 1.0 0.00 0.23 0.00 82 1013.9
20260508112908 48 322 0.0 0.0 0.00 0.00 0.00 82 1030.6
20260508112704 49 243 0.0 1.0 0.00 0.23 0.00 82 1013.8
20260508112404 49 198 0.0 0.0 0.00 0.00 0.00 85 1030.7
20260508112204 48 197 0.0 0.0 0.00 0.23 0.00 89 1014.1
20260508111900 47 305 0.0 0.0 0.00 0.00 0.00 89 1030.6
20260508111705 46 320 0.0 0.0 0.00 0.23 0.00 91 1014.1
20260508111358 45 325 0.0 0.0 0.00 0.00 0.00 92 1030.6
20260508111204 45 325 0.0 0.0 0.00 0.23 0.00 93 1014.2
20260508110855 44 325 0.0 0.0 0.00 0.00 0.00 93 1030.6
20260508110705 44 309 0.0 0.0 0.00 0.23 0.00 94 1014.0
20260508110352 44 312 0.0 0.0 0.00 0.00 0.00 94 1030.7
20260508110203 44 257 0.0 0.0 0.00 0.23 0.00 95 1014.0
20260508105847 43 269 0.0 0.0 0.00 0.00 0.00 95 1030.7
20260508105703 43 302 0.0 0.0 0.00 0.23 0.00 96 1014.1
20260508105343 42 305 0.0 0.0 0.00 0.00 0.00 96 1030.4
20260508105203 42 305 0.0 0.0 0.00 0.23 0.00 96 1013.9
20260508104841 41 305 0.0 0.0 0.00 0.00 0.00 95 1030.5
20260508104702 41 305 0.0 0.0 0.00 0.23 0.00 95 1013.7
20260508104337 42 305 0.0 0.0 0.00 0.00 0.00 96 1030.4
20260508104203 42 305 0.0 0.0 0.00 0.23 0.00 96 1013.4
20260508103835 42 305 0.0 0.0 0.00 0.00 0.00 97 1030.2
20260508103703 42 305 0.0 0.0 0.00 0.23 0.00 97 1013.5
20260508103332 42 305 0.0 0.0 0.00 0.00 0.00 97 1030.0
20260508103203 42 305 0.0 0.0 0.00 0.23 0.00 98 1013.6
20260508102829 41 305 0.0 0.0 0.00 0.00 0.00 98 1030.2
20260508102703 41 305 0.0 0.0 0.00 0.23 0.00 98 1013.5
20260508102327 40 305 0.0 0.0 0.00 0.00 0.00 98 1030.1
20260508102203 40 305 0.0 0.0 0.00 0.23 0.00 98 1013.5
20260508101824 40 305 0.0 0.0 0.00 0.00 0.00 97 1030.0
20260508101703 40 305 0.0 0.0 0.00 0.23 0.00 97 1013.4
20260508101321 40 306 0.0 0.0 0.00 0.00 0.00 97 1030.1
20260508101203 40 306 0.0 0.0 0.00 0.23 0.00 97 1013.4
20260508100819 40 306 0.0 0.0 0.00 0.00 0.00 97 1029.9
20260508100318 40 306 0.0 0.0 0.00 0.00 0.00 97 1029.9
20260508100203 40 306 0.0 0.0 0.00 0.23 0.00 96 1013.2
20260508095812 40 306 0.0 0.0 0.00 0.00 0.00 96 1030.0
20260508095705 40 307 0.0 0.0 0.00 0.23 0.00 96 1013.2
20260508095311 40 306 0.0 0.0 0.00 0.00 0.00 96 1029.9
20260508095203 40 306 0.0 0.0 0.00 0.23 0.00 96 1013.3
20260508094807 40 306 0.0 0.0 0.00 0.00 0.00 96 1029.9
20260508094703 40 306 0.0 0.0 0.00 0.23 0.00 96 1013.1
20260508094304 40 306 0.0 0.0 0.00 0.00 0.00 95 1029.9
20260508094203 40 306 0.0 0.0 0.00 0.23 0.00 95 1013.2
20260508093801 40 306 0.0 0.0 0.00 0.00 0.00 95 1029.6
20260508093706 40 306 0.0 0.0 0.00 0.23 0.00 95 1013.2
20260508093259 40 306 0.0 0.0 0.00 0.00 0.00 94 1029.9
20260508093203 40 306 0.0 0.0 0.00 0.23 0.00 94 1013.2
20260508092756 41 306 0.0 0.0 0.00 0.00 0.00 94 1029.8
20260508092703 41 306 0.0 0.0 0.00 0.23 0.00 93 1013.5
20260508092254 41 306 0.0 0.0 0.00 0.00 0.00 93 1029.9
20260508092203 41 306 0.0 0.0 0.00 0.23 0.00 93 1013.1
20260508091752 41 306 0.0 0.0 0.00 0.00 0.00 93 1030.0
20260508091248 42 306 0.0 0.0 0.00 0.00 0.00 93 1029.8
20260508091203 42 306 0.0 0.0 0.00 0.23 0.00 93 1013.0
20260508090746 42 306 0.0 0.0 0.00 0.00 0.00 92 1029.7
20260508090703 42 306 0.0 0.0 0.00 0.23 0.00 92 1013.0
20260508090244 42 306 0.0 0.0 0.00 0.00 0.00 92 1029.7
20260508090203 43 306 0.0 0.0 0.00 0.23 0.00 92 1013.2
20260508085739 43 306 0.0 0.0 0.00 0.00 0.00 91 1029.6
20260508085237 43 306 0.0 0.0 0.00 0.00 0.00 91 1029.9
20260508085203 43 306 0.0 0.0 0.00 0.23 0.00 90 1013.0
20260508084733 44 306 0.0 0.0 0.00 0.00 0.00 90 1029.6
20260508084703 44 306 0.0 0.0 0.00 0.23 0.00 90 1012.9
20260508084230 44 316 0.0 0.0 0.00 0.00 0.00 90 1029.6
20260508084204 44 296 0.0 0.0 0.00 0.23 0.00 89 1012.9
20260508083728 44 294 0.0 0.0 0.00 0.00 0.00 89 1029.5
20260508083703 44 294 0.0 0.0 0.00 0.23 0.00 89 1012.7
20260508083225 44 294 0.0 0.0 0.00 0.00 0.00 88 1029.5
20260508083203 44 294 0.0 1.0 0.00 0.23 0.00 88 1012.8
20260508082719 44 306 0.0 0.0 0.00 0.00 0.00 88 1029.3
20260508082703 44 306 0.0 0.0 0.00 0.23 0.00 87 1012.6
20260508082218 45 312 0.0 0.0 0.00 0.00 0.00 87 1029.2
20260508082203 45 312 0.0 3.0 0.00 0.23 0.00 87 1012.9
20260508081715 45 319 0.0 0.0 0.00 0.00 0.00 87 1029.2
20260508081704 45 319 0.0 0.0 0.00 0.23 0.00 87 1012.6
20260508081211 45 319 0.0 0.0 0.00 0.00 0.00 86 1028.8
20260508081204 45 319 0.0 0.0 0.00 0.23 0.00 86 1012.3
20260508080708 45 319 0.0 0.0 0.00 0.00 0.00 86 1029.1
20260508080703 45 320 0.0 0.0 0.00 0.23 0.00 86 1012.5
20260508080207 46 320 0.0 0.0 0.00 0.00 0.00 85 1029.1
20260508080204 46 320 0.0 5.0 0.00 0.23 0.00 85 1012.4
20260508075703 46 315 0.0 2.0 0.00 0.00 0.00 85 1029.3
20260508075204 46 330 0.0 0.0 0.00 0.23 0.00 85 1012.3
20260508075200 46 330 0.0 0.0 0.00 0.00 0.00 85 1029.1
20260508074703 46 327 0.0 3.0 0.00 0.23 0.00 84 1012.4
20260508074657 46 330 0.0 0.0 0.00 0.00 0.00 84 1029.0
20260508074154 46 303 0.0 3.0 0.00 0.00 0.00 84 1028.9
20260508073703 46 315 0.0 3.0 0.00 0.23 0.00 84 1012.2
20260508073651 46 304 0.0 0.0 0.00 0.00 0.00 84 1028.7
20260508073203 47 304 0.0 7.0 0.00 0.23 0.00 83 1012.1
20260508073149 47 304 0.0 0.0 0.00 0.00 0.00 83 1028.7
20260508072703 47 340 1.0 7.0 0.00 0.23 0.00 82 1012.2
20260508072645 47 334 0.0 7.0 0.00 0.00 0.00 82 1028.7
20260508072203 47 314 1.0 5.0 0.00 0.23 0.00 81 1012.2
20260508072142 47 306 0.0 3.0 0.00 0.00 0.00 82 1028.7
20260508071706 47 307 0.0 3.0 0.00 0.23 0.00 81 1011.8
20260508071639 47 307 0.0 3.0 0.00 0.00 0.00 81 1028.5
20260508071138 48 297 0.0 3.0 0.00 0.00 0.00 81 1028.8
20260508070704 48 311 0.0 5.0 0.00 0.23 0.00 80 1012.0
20260508070635 48 311 0.0 3.0 0.00 0.00 0.00 80 1028.6
20260508070204 48 310 0.0 12.0 0.00 0.23 0.00 79 1011.8
20260508070133 48 309 0.0 0.0 0.00 0.00 0.00 79 1028.4
20260508065704 49 316 1.0 7.0 0.00 0.23 0.00 78 1011.9
20260508065630 49 325 0.0 3.0 0.00 0.00 0.00 79 1028.5
20260508065128 49 307 0.0 7.0 0.00 0.00 0.00 78 1028.5
20260508064703 49 334 1.0 7.0 0.00 0.24 0.00 78 1011.7
20260508064626 49 318 1.0 5.0 0.00 0.00 0.00 78 1028.4
20260508064203 49 321 0.0 13.0 0.00 0.24 0.00 76 1011.5
20260508064124 50 321 0.0 2.0 0.00 0.00 0.00 76 1028.2
20260508063703 50 300 4.0 12.0 0.00 0.24 0.00 75 1011.5
20260508063621 50 295 6.0 11.0 0.00 0.00 0.00 75 1028.3
20260508063205 50 298 2.0 12.0 0.00 0.27 0.00 74 1011.5
20260508063119 50 297 3.0 7.0 0.00 0.00 0.00 74 1028.2
20260508062704 51 290 2.0 14.0 0.00 0.28 0.00 73 1011.2
20260508062616 51 323 0.0 14.0 0.00 0.00 0.00 73 1027.9
20260508062204 51 332 2.0 14.0 0.00 0.30 0.00 73 1011.4
20260508062112 51 306 1.0 7.0 0.00 0.00 0.00 73 1028.1
20260508061704 51 324 0.0 9.0 0.00 0.30 0.00 73 1011.3
20260508061610 51 329 0.0 3.0 0.00 0.00 0.00 73 1028.1
20260508061205 51 353 2.0 9.0 0.00 0.30 0.00 72 1011.3
20260508061108 51 354 4.0 10.0 0.00 0.00 0.00 72 1027.9
20260508060704 51 356 4.0 13.0 0.00 0.30 0.00 72 1011.2
20260508060604 51 11 2.0 13.0 0.00 0.00 0.00 72 1027.9
20260508060204 52 317 3.0 24.0 0.00 0.30 0.00 71 1011.2
20260508055704 51 327 5.0 24.0 0.00 0.30 0.00 72 1011.0
20260508055556 51 345 2.0 19.0 0.00 0.00 0.00 73 1027.7
20260508055204 51 332 1.0 13.0 0.00 0.30 0.00 75 1011.0
20260508055053 51 327 0.0 3.0 0.00 0.00 0.00 75 1027.7
20260508054704 50 8 2.0 13.0 0.00 0.30 0.00 78 1011.0
20260508054549 50 9 3.0 13.0 0.00 0.00 0.00 79 1027.7
20260508054204 49 298 1.0 7.0 0.00 0.35 0.00 83 1010.8
20260508054047 49 291 0.0 0.0 0.00 0.00 0.00 83 1027.4
20260508053703 49 300 0.0 0.0 0.00 0.36 0.00 87 1010.6
20260508053543 49 300 0.0 0.0 0.00 0.00 0.00 87 1027.2
20260508053203 49 300 0.0 0.0 0.00 0.38 0.00 87 1010.5
20260508053042 49 300 0.0 0.0 0.00 0.00 0.00 87 1027.1
20260508052703 49 300 0.0 0.0 0.00 0.38 0.00 87 1010.4
20260508052539 49 300 0.0 0.0 0.00 0.00 0.00 87 1027.1
20260508052204 48 300 0.0 0.0 0.00 0.38 0.00 88 1010.2
20260508052035 48 300 0.0 0.0 0.00 0.00 0.00 88 1026.9
20260508051704 48 300 0.0 0.0 0.00 0.40 0.00 88 1010.3
20260508051531 48 300 0.0 0.0 0.00 0.00 0.00 88 1027.0
20260508051204 48 300 0.0 0.0 0.00 0.41 0.00 88 1010.3
20260508051027 49 300 0.0 0.0 0.00 0.00 0.00 88 1027.0
20260508050705 48 300 0.0 0.0 0.00 0.42 0.00 88 1010.2
20260508050524 48 300 0.0 0.0 0.00 0.00 0.00 89 1026.8
20260508050204 48 300 0.0 0.0 0.00 0.42 0.00 89 1010.1
20260508050021 48 300 0.0 0.0 0.00 0.00 0.00 90 1027.0
20260508045704 47 300 0.0 0.0 0.23 0.44 0.00 90 1010.1
20260508045517 48 300 0.0 0.0 0.00 0.00 0.00 90 1026.8
20260508045204 48 300 0.0 0.0 0.23 0.45 0.00 89 1010.1
20260508045015 48 300 0.0 0.0 0.00 0.00 0.00 88 1026.8
20260508044513 48 300 0.0 0.0 0.00 0.00 0.00 88 1026.4
20260508044205 49 300 0.0 0.0 0.23 0.46 0.00 88 1009.8
20260508044008 49 300 0.0 0.0 0.00 0.00 0.00 88 1026.4
20260508043703 49 300 0.0 0.0 0.23 0.46 0.00 88 1009.9
20260508043504 49 300 0.0 0.0 0.00 0.00 0.00 88 1026.3
20260508043000 49 300 0.0 0.0 0.00 0.00 0.00 88 1026.4
20260508042704 49 300 0.0 0.0 0.23 0.46 0.00 87 1009.6
20260508042458 49 300 0.0 0.0 0.00 0.00 0.00 87 1026.2
20260508041955 49 300 0.0 0.0 0.00 0.00 0.00 87 1026.5
20260508041705 49 300 0.0 0.0 0.23 0.46 0.00 86 1009.6
20260508041452 49 300 0.0 0.0 0.00 0.00 0.00 86 1026.3
20260508040949 49 299 0.0 0.0 0.00 0.00 0.00 86 1026.5
20260508040707 49 299 0.0 0.0 0.23 0.46 0.00 87 1009.6
20260508040446 49 299 0.0 0.0 0.00 0.00 0.00 87 1026.1
20260508040205 48 300 0.0 0.0 0.23 0.46 0.00 87 1009.6
20260508035944 48 300 0.0 0.0 0.00 0.23 0.23 87 1026.2
20260508035705 48 300 0.0 0.0 0.00 0.61 0.23 87 1009.5
20260508035440 48 300 0.0 0.0 0.00 0.23 0.23 87 1026.4
20260508035203 48 300 0.0 0.0 0.00 0.61 0.23 88 1009.5
20260508034937 48 300 0.0 0.0 0.00 0.23 0.23 88 1026.2
20260508034703 48 300 0.0 0.0 0.00 0.61 0.23 88 1009.5
20260508034435 48 300 0.0 0.0 0.00 0.23 0.23 88 1026.4
20260508033931 47 300 0.0 0.0 0.00 0.23 0.23 89 1026.1
20260508033703 47 300 0.0 0.0 0.00 0.61 0.23 89 1009.5
20260508033429 47 300 0.0 0.0 0.00 0.23 0.23 89 1026.2
20260508032926 47 300 0.0 0.0 0.00 0.23 0.23 89 1026.3
20260508032704 46 300 0.0 0.0 0.00 0.61 0.23 89 1009.6
20260508032424 46 300 0.0 0.0 0.00 0.23 0.23 89 1026.1
20260508031920 47 300 0.0 0.0 0.00 0.23 0.23 89 1026.0
20260508031704 46 300 0.0 0.0 0.00 0.61 0.23 88 1009.5
20260508031418 46 300 0.0 0.0 0.00 0.23 0.23 88 1026.1
20260508031204 46 300 0.0 0.0 0.00 0.61 0.23 88 1009.6
20260508030913 47 300 0.0 0.0 0.00 0.23 0.23 88 1026.3
20260508030704 47 300 0.0 0.0 0.00 0.61 0.23 87 1009.6
20260508030411 46 300 0.0 0.0 0.00 0.23 0.23 87 1026.4
20260508030205 46 300 0.0 0.0 0.00 0.61 0.23 87 1009.6
20260508025908 46 300 0.0 0.0 0.00 0.23 0.23 87 1026.1
20260508025404 47 300 0.0 0.0 0.00 0.23 0.23 87 1026.2
20260508025203 47 300 0.0 0.0 0.00 0.61 0.23 86 1009.7
20260508024901 47 300 0.0 0.0 0.00 0.23 0.23 86 1026.3
20260508024704 47 300 0.0 0.0 0.00 0.61 0.23 86 1009.6
20260508024358 47 300 0.0 0.0 0.00 0.23 0.23 86 1026.1
20260508023855 47 300 0.0 0.0 0.00 0.23 0.23 85 1026.2
20260508023351 47 300 0.0 0.0 0.00 0.23 0.23 86 1026.1
20260508023204 47 300 0.0 0.0 0.00 0.61 0.23 87 1009.5
20260508022848 47 300 0.0 0.0 0.00 0.23 0.23 87 1026.2
20260508022704 47 300 0.0 0.0 0.00 0.61 0.23 86 1009.5
20260508022344 47 300 0.0 0.0 0.00 0.23 0.23 86 1026.2
20260508022205 47 300 0.0 0.0 0.00 0.61 0.23 86 1009.3
20260508021841 47 300 0.0 0.0 0.00 0.23 0.23 86 1026.1
20260508021704 47 300 0.0 0.0 0.00 0.61 0.23 86 1009.6
20260508021337 48 300 0.0 0.0 0.00 0.23 0.23 86 1026.0
20260508021204 48 300 0.0 0.0 0.00 0.61 0.23 86 1009.3
20260508020828 48 300 0.0 0.0 0.00 0.23 0.23 86 1025.9
20260508020704 48 300 0.0 0.0 0.00 0.61 0.23 85 1009.4
20260508020326 48 300 0.0 0.0 0.00 0.23 0.23 85 1026.2
20260508020204 48 300 0.0 0.0 0.00 0.61 0.23 85 1009.3
20260508015823 48 300 0.0 0.0 0.00 0.23 0.23 84 1025.8
20260508015703 48 300 0.0 0.0 0.00 0.61 0.23 84 1009.3
20260508015320 48 300 0.0 0.0 0.00 0.23 0.23 83 1026.0
20260508015203 48 300 0.0 0.0 0.00 0.61 0.23 83 1009.3
20260508014817 48 300 0.0 0.0 0.00 0.23 0.23 82 1026.0
20260508014703 48 300 0.0 0.0 0.00 0.61 0.23 82 1009.3
20260508014314 48 300 0.0 0.0 0.00 0.23 0.23 82 1025.8
20260508014203 48 300 0.0 0.0 0.00 0.61 0.23 80 1009.1
20260508013809 48 300 0.0 0.0 0.00 0.23 0.23 79 1025.9
20260508013703 48 300 0.0 0.0 0.00 0.62 0.23 79 1009.0
20260508013306 49 300 0.0 0.0 0.00 0.23 0.23 78 1025.9
20260508013204 49 300 0.0 0.0 0.00 0.63 0.23 78 1009.2
20260508012803 49 300 0.0 0.0 0.00 0.23 0.23 77 1025.9
20260508012702 49 300 0.0 0.0 0.00 0.63 0.23 77 1009.0
20260508012301 49 300 0.0 0.0 0.00 0.23 0.23 76 1025.5
20260508012203 49 300 0.0 0.0 0.00 0.64 0.23 76 1008.9
20260508011758 50 300 0.0 0.0 0.00 0.23 0.23 75 1025.5
20260508011705 50 300 0.0 0.0 0.00 0.64 0.23 74 1008.9
20260508011256 50 300 0.0 0.0 0.00 0.23 0.23 74 1025.6
20260508010752 50 300 0.0 0.0 0.00 0.23 0.23 74 1025.5
20260508010703 50 300 0.0 0.0 0.00 0.69 0.23 74 1008.7
20260508010251 50 300 0.0 0.0 0.00 0.23 0.23 73 1025.6
20260508010203 50 300 0.0 0.0 0.00 0.70 0.23 73 1008.7
20260508005747 50 300 0.0 0.0 0.00 0.23 0.23 72 1025.1
20260508005704 50 300 0.0 0.0 0.00 0.74 0.23 71 1008.7
20260508005244 50 300 0.0 0.0 0.00 0.23 0.23 70 1025.3
20260508005204 51 300 0.0 0.0 0.00 0.74 0.23 70 1008.7
20260508004739 51 300 0.0 0.0 0.00 0.23 0.23 69 1025.3
20260508004703 51 300 0.0 0.0 0.00 0.74 0.23 68 1008.7
20260508004236 51 300 0.0 0.0 0.00 0.23 0.23 69 1025.5
20260508004203 51 300 0.0 0.0 0.00 0.74 0.23 70 1008.6
20260508003733 51 300 0.0 0.0 0.00 0.23 0.23 68 1025.3
20260508003703 52 300 0.0 0.0 0.00 0.74 0.23 67 1008.6
20260508003230 52 300 0.0 0.0 0.00 0.23 0.23 66 1025.3
20260508003203 52 300 0.0 0.0 0.00 0.74 0.23 65 1008.6
20260508002727 53 300 0.0 0.0 0.00 0.23 0.23 67 1025.3
20260508002703 53 300 0.0 0.0 0.00 0.74 0.23 67 1008.6
20260508002224 53 300 0.0 0.0 0.00 0.23 0.23 67 1025.2
20260508002203 53 300 0.0 0.0 0.00 0.74 0.23 66 1008.5
20260508001720 53 300 0.0 0.0 0.00 0.23 0.23 65 1025.2
20260508001703 54 300 0.0 0.0 0.00 0.74 0.23 64 1008.4
20260508001215 54 300 0.0 0.0 0.00 0.23 0.23 63 1025.3
20260508001203 54 300 0.0 0.0 0.00 0.74 0.23 62 1008.4
20260508000712 55 302 0.0 0.0 0.00 0.23 0.23 61 1025.3
20260508000704 55 302 0.0 0.0 0.00 0.74 0.23 61 1008.5
20260508000212 56 302 0.0 0.0 0.00 0.23 0.23 58 1025.0
20260508000205 56 302 0.0 1.0 0.00 0.74 0.23 58 1008.4
20260507235705 57 307 0.0 0.0 0.00 0.23 0.23 53 1025.1
20260507235703 56 307 0.0 0.0 0.00 0.74 0.23 52 1008.2
20260507235203 56 311 0.0 0.0 0.00 0.74 0.23 56 1008.4
20260507234704 57 263 0.0 3.0 0.00 0.74 0.23 50 1008.4
20260507234700 57 266 0.0 0.0 0.00 0.23 0.23 53 1025.0
20260507234156 57 284 0.0 0.0 0.00 0.23 0.23 51 1025.1
20260507233704 57 286 0.0 3.0 0.00 0.74 0.23 53 1008.1
20260507233653 57 286 0.0 3.0 0.00 0.23 0.23 54 1024.9
20260507233203 58 274 0.0 0.0 0.00 0.74 0.23 51 1008.2
20260507233151 58 274 0.0 0.0 0.00 0.23 0.23 52 1024.9
20260507232703 58 267 0.0 0.0 0.00 0.74 0.23 49 1008.3
20260507232648 58 270 0.0 0.0 0.00 0.23 0.23 49 1024.8
20260507232203 59 298 0.0 0.0 0.00 0.74 0.23 46 1008.0
20260507232145 59 298 0.0 0.0 0.00 0.23 0.23 47 1024.6
20260507231703 59 298 0.0 0.0 0.00 0.74 0.23 47 1008.1
20260507231641 59 298 0.0 0.0 0.00 0.23 0.23 47 1024.8
20260507231133 59 298 0.0 0.0 0.00 0.23 0.23 45 1024.9
20260507230704 59 327 0.0 0.0 0.00 0.74 0.23 48 1008.2
20260507230629 59 327 0.0 0.0 0.00 0.23 0.23 48 1024.8
20260507230203 59 327 0.0 0.0 0.00 0.74 0.23 47 1008.4
20260507230126 59 327 0.0 0.0 0.00 0.23 0.23 47 1025.1
20260507225706 60 320 0.0 1.0 0.00 0.74 0.23 49 1008.2
20260507225620 60 320 0.0 0.0 0.00 0.23 0.23 49 1024.9
20260507225203 61 302 0.0 0.0 0.00 0.74 0.23 46 1007.9
20260507225117 61 302 0.0 0.0 0.00 0.23 0.23 46 1024.5
20260507224704 61 359 0.0 0.0 0.00 0.74 0.23 46 1008.2
20260507224613 61 359 0.0 0.0 0.00 0.23 0.23 47 1024.8
20260507224110 61 359 0.0 0.0 0.00 0.23 0.23 43 1024.7
20260507223705 61 318 0.0 3.0 0.00 0.74 0.23 44 1008.0
20260507223606 61 320 0.0 0.0 0.00 0.23 0.23 44 1024.7
20260507223103 61 322 0.0 2.0 0.00 0.23 0.23 46 1024.7
20260507222703 62 302 0.0 5.0 0.00 0.74 0.23 46 1008.0
20260507222600 62 303 0.0 0.0 0.00 0.23 0.23 47 1024.7
20260507222203 61 351 1.0 7.0 0.00 0.74 0.23 47 1008.1
20260507222056 61 351 0.0 5.0 0.00 0.23 0.23 48 1024.7
20260507221703 62 344 1.0 3.0 0.00 0.74 0.23 46 1007.9
20260507221552 62 342 2.0 3.0 0.00 0.23 0.23 46 1024.6
20260507221203 62 347 1.0 7.0 0.00 0.74 0.23 47 1008.2
20260507221049 62 347 0.0 3.0 0.00 0.23 0.23 47 1024.8
20260507220547 62 1 3.0 7.0 0.00 0.23 0.23 45 1024.9
20260507220205 62 310 0.0 5.0 0.00 0.74 0.23 45 1008.1
20260507220044 62 306 0.0 2.0 0.00 0.23 0.23 45 1024.8
20260507215704 62 285 1.0 8.0 0.00 0.74 0.23 44 1008.2
20260507215540 62 277 1.0 3.0 0.00 0.23 0.23 44 1024.9
20260507215038 62 31 5.0 10.0 0.00 0.23 0.23 44 1024.7
20260507214704 62 3 1.0 5.0 0.00 0.74 0.23 45 1008.2
20260507214535 62 0 2.0 3.0 0.00 0.23 0.23 45 1024.9
20260507214031 62 310 0.0 0.0 0.00 0.23 0.23 46 1024.9
20260507213704 62 328 1.0 5.0 0.00 0.74 0.23 43 1008.3
20260507213527 62 13 0.0 5.0 0.00 0.23 0.23 42 1024.9
20260507213203 62 307 1.0 3.0 0.00 0.74 0.23 43 1008.2
20260507213025 62 282 0.0 0.0 0.00 0.23 0.23 46 1025.0
20260507212703 62 232 0.0 1.0 0.00 0.74 0.23 45 1008.2
20260507212520 62 232 0.0 2.0 0.00 0.23 0.23 44 1025.0
20260507212204 62 303 0.0 3.0 0.00 0.74 0.23 44 1008.3
20260507212017 62 208 0.0 0.0 0.00 0.23 0.23 43 1024.9
20260507211514 61 309 0.0 7.0 0.00 0.23 0.23 43 1025.0
20260507211204 61 338 2.0 12.0 0.00 0.74 0.23 44 1008.1
20260507211005 61 316 6.0 10.0 0.00 0.23 0.23 43 1025.2
20260507210704 60 292 0.0 0.0 0.00 0.74 0.23 46 1008.1
20260507210502 60 319 0.0 0.0 0.00 0.23 0.23 46 1024.8
20260507210203 60 287 0.0 12.0 0.00 0.74 0.23 48 1008.2
20260507205959 61 287 0.0 11.0 0.00 0.23 0.23 49 1024.8
20260507205703 61 315 0.0 5.0 0.00 0.74 0.23 46 1008.1
20260507205456 62 305 0.0 5.0 0.00 0.23 0.23 44 1024.6
20260507205205 62 295 1.0 7.0 0.00 0.74 0.23 45 1008.1
20260507204952 63 333 4.0 7.0 0.00 0.23 0.23 44 1024.9
20260507204448 62 8 0.0 5.0 0.00 0.23 0.23 45 1024.6
20260507204204 62 293 0.0 8.0 0.00 0.74 0.23 45 1007.7
20260507203946 62 315 0.0 3.0 0.00 0.23 0.23 47 1024.7
20260507203703 62 355 1.0 8.0 0.00 0.74 0.23 43 1008.0
20260507203444 62 8 1.0 5.0 0.00 0.23 0.23 48 1024.7
20260507203203 62 345 1.0 12.0 0.00 0.74 0.23 44 1007.8
20260507202940 62 315 0.0 11.0 0.00 0.23 0.23 46 1024.5
20260507202703 62 307 3.0 8.0 0.00 0.74 0.23 43 1008.0
20260507202436 62 308 2.0 8.0 0.00 0.23 0.23 42 1024.7
20260507202203 62 313 1.0 9.0 0.00 0.74 0.23 46 1007.9
20260507201932 63 297 1.0 7.0 0.00 0.23 0.23 43 1024.6
20260507201703 63 312 3.0 9.0 0.00 0.74 0.23 43 1008.0
20260507201427 64 330 0.0 3.0 0.00 0.23 0.23 43 1024.8
20260507201204 64 289 0.0 7.0 0.00 0.74 0.23 41 1008.1
20260507200924 64 297 0.0 2.0 0.00 0.23 0.23 46 1024.7
20260507200704 63 332 2.0 8.0 0.00 0.74 0.23 44 1008.2
20260507200414 64 10 5.0 8.0 0.00 0.23 0.23 42 1024.9
20260507195910 64 334 0.0 2.0 0.00 0.23 0.23 44 1024.9
20260507195704 64 318 1.0 8.0 0.00 0.74 0.23 42 1008.1
20260507195408 63 8 0.0 5.0 0.00 0.23 0.23 41 1024.7
20260507195204 64 16 1.0 8.0 0.00 0.74 0.23 45 1008.0
20260507194905 64 334 0.0 5.0 0.00 0.23 0.23 44 1024.7
20260507194704 65 344 1.0 7.0 0.00 0.74 0.23 42 1008.1
20260507194402 65 304 2.0 3.0 0.00 0.23 0.23 43 1024.9
20260507194204 64 251 0.0 5.0 0.00 0.74 0.23 42 1008.4
20260507193858 63 337 0.0 3.0 0.00 0.23 0.23 42 1025.0
20260507193703 63 234 1.0 16.0 0.00 0.74 0.23 41 1008.3
20260507193355 63 326 8.0 16.0 0.00 0.23 0.23 43 1025.0
20260507193204 63 9 2.0 8.0 0.00 0.74 0.23 41 1008.4
20260507192851 63 302 0.0 8.0 0.00 0.23 0.23 42 1025.0
20260507192704 64 75 2.0 7.0 0.00 0.74 0.23 41 1008.4
20260507192348 64 254 0.0 3.0 0.00 0.23 0.23 41 1025.0
20260507192204 63 302 1.0 12.0 0.00 0.74 0.23 44 1008.5
20260507191844 63 286 0.0 7.0 0.00 0.23 0.23 41 1025.2
20260507191704 63 25 6.0 12.0 0.00 0.74 0.23 43 1008.6
20260507191340 64 297 5.0 8.0 0.00 0.23 0.23 46 1025.3
20260507191204 64 279 2.0 12.0 0.00 0.74 0.23 49 1008.6
20260507190838 63 313 0.0 3.0 0.00 0.23 0.23 45 1025.5
20260507190704 62 294 0.0 12.0 0.00 0.74 0.23 42 1008.4
20260507190336 62 331 5.0 7.0 0.00 0.23 0.23 43 1025.3
20260507190205 62 33 3.0 12.0 0.00 0.74 0.23 45 1009.0
20260507185834 62 314 0.0 5.0 0.00 0.23 0.23 44 1025.6
20260507185705 62 21 4.0 14.0 0.00 0.74 0.23 47 1008.8
20260507185331 62 302 0.0 14.0 0.00 0.23 0.23 49 1025.5
20260507185203 62 11 5.0 20.0 0.00 0.74 0.23 48 1009.1
20260507184828 63 359 10.0 18.0 0.00 0.23 0.23 46 1025.5
20260507184704 63 342 4.0 14.0 0.00 0.74 0.23 46 1009.0
20260507184326 63 282 0.0 2.0 0.00 0.23 0.23 45 1025.7
20260507183822 63 288 0.0 2.0 0.00 0.23 0.23 49 1025.8
20260507183704 62 289 1.0 8.0 0.00 0.74 0.23 46 1009.1
20260507183314 62 283 1.0 7.0 0.00 0.23 0.23 40 1025.8
20260507183203 62 295 1.0 17.0 0.00 0.74 0.23 47 1009.1
20260507182811 62 347 1.0 7.0 0.00 0.23 0.23 48 1025.7
20260507182307 61 28 0.0 10.0 0.00 0.23 0.23 49 1025.8
20260507182207 61 14 5.0 14.0 0.00 0.74 0.23 50 1009.1
20260507181803 62 34 8.0 14.0 0.00 0.23 0.23 47 1025.6
20260507181704 62 63 6.0 13.0 0.00 0.74 0.23 46 1008.9
20260507181259 62 302 5.0 7.0 0.00 0.23 0.23 45 1025.8
20260507181204 62 318 3.0 13.0 0.00 0.75 0.23 48 1009.1
20260507180756 61 19 4.0 10.0 0.00 0.23 0.23 47 1025.6
20260507180704 61 22 7.0 13.0 0.00 0.75 0.23 48 1009.3
20260507180253 62 0 7.0 10.0 0.00 0.23 0.23 50 1026.0
20260507180204 62 316 3.0 9.0 0.00 0.75 0.23 45 1009.3
20260507175748 61 340 1.0 7.0 0.00 0.23 0.23 45 1026.0
20260507175706 61 327 3.0 13.0 0.00 0.75 0.23 44 1009.1
20260507175246 62 310 1.0 10.0 0.00 0.23 0.23 46 1026.0
20260507175203 62 343 1.0 13.0 0.00 0.75 0.23 49 1009.4
20260507174743 61 303 0.0 8.0 0.00 0.23 0.23 56 1026.1
20260507174703 61 313 4.0 16.0 0.00 0.75 0.23 47 1009.2
20260507174241 61 330 5.0 11.0 0.00 0.23 0.23 46 1026.0
20260507174204 62 352 5.0 16.0 0.00 0.75 0.23 48 1009.4
20260507173739 61 238 0.0 7.0 0.00 0.23 0.23 46 1026.1
20260507173704 61 280 2.0 14.0 0.00 0.75 0.23 45 1009.4
20260507173235 61 297 0.0 7.0 0.00 0.23 0.23 49 1026.2
20260507172731 61 23 4.0 7.0 0.00 0.23 0.23 49 1026.3
20260507172704 61 318 4.0 13.0 0.00 0.75 0.23 50 1009.5
20260507172223 61 308 9.0 13.0 0.00 0.23 0.23 46 1026.3
20260507172203 61 310 3.0 13.0 0.00 0.75 0.23 50 1009.7
20260507171723 61 23 5.0 10.0 0.00 0.23 0.23 48 1026.7
20260507171220 61 1 2.0 8.0 0.00 0.23 0.23 50 1026.9
20260507171204 61 0 3.0 9.0 0.00 0.75 0.23 48 1010.1
20260507170717 61 348 1.0 3.0 0.00 0.23 0.23 54 1026.6
20260507170214 60 333 2.0 3.0 0.00 0.23 0.23 47 1026.6
20260507170204 61 345 2.0 7.0 0.00 0.75 0.23 50 1010.0
20260507165709 59 39 0.0 5.0 0.00 0.23 0.23 60 1026.9
20260507165704 59 14 2.0 8.0 0.00 0.75 0.23 55 1010.3
20260507165206 59 316 3.0 7.0 0.00 0.23 0.23 53 1027.0
20260507165204 59 331 3.0 13.0 0.00 0.75 0.23 54 1010.3
20260507164703 59 43 3.0 14.0 0.00 0.75 0.23 53 1010.6
20260507164202 60 24 5.0 14.0 0.00 0.75 0.23 52 1010.5
20260507164200 60 30 5.0 14.0 0.00 0.23 0.23 51 1027.1
20260507163704 59 269 1.0 7.0 0.00 0.75 0.23 53 1010.4
20260507163656 60 352 0.0 3.0 0.00 0.23 0.23 55 1027.0
20260507163203 58 70 3.0 7.0 0.00 0.75 0.23 57 1010.6
20260507163154 58 87 5.0 7.0 0.00 0.23 0.23 55 1027.1
20260507162703 58 85 3.0 12.0 0.00 0.75 0.23 57 1010.8
20260507162650 58 10 0.0 7.0 0.00 0.23 0.23 56 1027.5
20260507162204 58 58 4.0 14.0 0.00 0.75 0.23 57 1010.9
20260507162146 58 69 6.0 10.0 0.00 0.23 0.23 59 1027.6
20260507161703 58 351 6.0 16.0 0.00 0.75 0.23 57 1010.9
20260507161642 58 323 2.0 13.0 0.00 0.23 0.23 59 1027.6
20260507161203 58 24 3.0 12.0 0.00 0.75 0.23 58 1010.9
20260507161139 58 32 4.0 11.0 0.00 0.23 0.23 57 1027.6
20260507160635 58 80 4.0 10.0 0.00 0.23 0.23 57 1027.6
20260507160203 58 23 5.0 14.0 0.00 0.76 0.23 59 1011.0
20260507160132 58 22 10.0 14.0 0.00 0.23 0.23 58 1027.6
20260507155705 58 57 2.0 12.0 0.00 0.77 0.23 62 1010.9
20260507155627 58 334 1.0 5.0 0.00 0.23 0.23 63 1027.6
20260507155204 58 351 2.0 9.0 0.00 0.77 0.23 65 1010.9
20260507155119 58 26 0.0 5.0 0.00 0.23 0.23 68 1027.6
20260507154703 58 37 2.0 12.0 0.00 0.79 0.23 64 1010.9
20260507154615 58 9 0.0 11.0 0.00 0.23 0.23 65 1027.6
20260507154203 57 328 2.0 9.0 0.00 0.80 0.23 63 1010.9
20260507154112 57 327 2.0 10.0 0.00 0.23 0.23 63 1027.5
20260507153703 57 0 3.0 12.0 0.00 0.81 0.23 63 1011.1
20260507153608 57 340 2.0 8.0 0.00 0.23 0.23 62 1027.7
20260507153204 57 35 3.0 12.0 0.00 0.82 0.23 65 1011.2
20260507153105 57 47 3.0 5.0 0.00 0.23 0.23 66 1027.8
20260507152703 57 314 2.0 9.0 0.00 0.83 0.23 64 1011.4
20260507152601 57 321 3.0 8.0 0.00 0.23 0.23 63 1028.1
20260507152057 57 11 3.0 8.0 0.00 0.23 0.23 63 1028.1
20260507151704 57 82 1.0 5.0 0.00 0.84 0.23 63 1011.5
20260507151554 57 349 0.0 2.0 0.00 0.23 0.23 63 1028.1
20260507151203 56 73 1.0 8.0 0.00 0.85 0.23 65 1011.5
20260507151052 57 62 1.0 5.0 0.00 0.23 0.23 64 1028.1
20260507150549 57 345 0.0 7.0 0.00 0.23 0.23 65 1028.4
20260507150203 56 21 3.0 8.0 0.00 0.88 0.23 65 1011.5
20260507150045 56 234 1.0 8.0 0.00 0.23 0.23 64 1028.2
20260507145704 57 303 3.0 7.0 0.00 0.89 0.23 66 1011.7
20260507145540 57 309 4.0 7.0 0.00 0.23 0.23 66 1028.4
20260507145204 56 43 3.0 7.0 0.00 0.90 0.23 65 1011.7
20260507145038 56 50 5.0 7.0 0.00 0.23 0.23 65 1028.4
20260507144703 55 3 0.0 8.0 0.00 0.91 0.23 66 1011.8
20260507144534 55 17 0.0 5.0 0.00 0.23 0.23 66 1028.5
20260507144203 54 50 2.0 9.0 0.00 0.92 0.23 66 1012.1
20260507144032 54 18 2.0 8.0 0.00 0.23 0.23 66 1028.9
20260507143703 54 6 1.0 9.0 0.00 0.93 0.23 69 1011.8
20260507143529 54 0 0.0 7.0 0.00 0.23 0.23 69 1028.5
20260507143027 53 38 7.0 8.0 0.00 0.23 0.23 68 1028.7
20260507142703 53 3 5.0 12.0 0.00 0.94 0.23 69 1012.0
20260507142522 54 16 6.0 11.0 0.00 0.23 0.23 67 1028.7
20260507142204 54 324 4.0 13.0 0.00 0.94 0.23 69 1012.1
20260507142018 53 27 4.0 10.0 0.00 0.23 0.23 68 1028.8
20260507141703 54 44 6.0 13.0 0.00 0.95 0.23 69 1012.2
20260507141515 54 21 8.0 13.0 0.00 0.23 0.23 68 1028.7
20260507141203 54 336 5.0 16.0 0.00 0.96 0.23 67 1012.0
20260507141007 54 44 3.0 13.0 0.00 0.23 0.23 66 1028.8
20260507140704 54 336 7.0 16.0 0.00 0.97 0.23 67 1012.0
20260507140503 54 65 7.0 10.0 0.00 0.23 0.23 66 1028.7
20260507140203 55 358 7.0 14.0 0.00 0.98 0.23 67 1011.9
20260507140000 55 41 7.0 14.0 0.00 0.23 0.23 67 1028.6
20260507135703 55 30 3.0 13.0 0.00 0.99 0.23 67 1012.0